Regional Weather Roundup
Issued by NWS Wilmington, NC

Home | Current Version | Previous Version | Text Only | Print | Product List | Glossary On
Versions: 1 2 3 4 5 6 7 8 9 10 11 12 13 14 15 16 17 18 19 20 21 22 23 24 25 26 27 28 29 30 31 32 33 34 35 36 37 38 39 40 41 42 43 44 45 46 47 48 49 50
000
ASUS42 KILM 311913
RWRILM
RWRILM
REGIONAL HOURLY WEATHER ROUNDUP
NATIONAL WEATHER SERVICE WILMINGTON NC
300 PM EDT MON AUG 31 2015

NOTE: "FAIR" INDICATES FEW OR NO CLOUDS BELOW 12,000 FEET WITH NO
SIGNIFICANT WEATHER AND/OR OBSTRUCTIONS TO VISIBILITY.

...............WFO WILMINGTON COUNTY WARNING AREA...............

......COASTAL NC AND SC COUNTIES......

CITY           SKY/WX    TMP DP  RH WIND       PRES   REMARKS
WILMINGTON     CLOUDY    81  74  79 NE6       30.06F
N MYRTLE BEACH CLOUDY    79  74  84 NE6       30.05F
MYRTLE BEACH   LGT RAIN  77  72  83 VRB6      30.07F FOG

......INLAND NC AND SC COUNTIES.......

CITY           SKY/WX    TMP DP  RH WIND       PRES   REMARKS
LUMBERTON      CLOUDY    83  73  72 CALM      30.05F
ELIZABETHTOWN  CLOUDY    79  73  82 SE5       30.07F
WHITEVILLE     CLOUDY    78  73  84 CALM      30.06F
FLORENCE       CLOUDY    83  71  67 NW5       30.06F
DARLINGTON     PTSUNNY   81  70  69 N8        30.08F

....................REST OF NORTH CAROLINA......................

.........EASTERN NC.........

CITY           SKY/WX    TMP DP  RH WIND       PRES   REMARKS
CAPE HATTERAS  LGT RAIN  77  74  90 S12       30.13S
JACKSONVILLE   CLOUDY    81  72  74 E7        30.08F
MOREHEAD CITY  RAIN      75  75 100 S5        30.11S FOG
KENANSVILLE    CLOUDY    78  73  83 E3        30.08F
NEW BERN       CLOUDY    78  73  84 SE7       30.10F
ELIZABETH CITY LGT RAIN  75  71  87 S3        30.12R

.........CENTRAL NC.........

CITY           SKY/WX    TMP DP  RH WIND       PRES   REMARKS
RALEIGH DURHAM DRIZZLE   72  70  94 E5        30.10F FOG
ROCKY MOUNT    CLOUDY    78  72  81 CALM      30.09F
ROANOKE RAPIDS NOT AVBL
FAYETTEVILLE   CLOUDY    80  72  76 CALM      30.06F
HOFFMAN        CLOUDY    76  69  80 N6        30.08S

.........WESTERN NC.........

CITY           SKY/WX    TMP DP  RH WIND       PRES   REMARKS
CHARLOTTE      CLOUDY    83  64  52 NW3       30.09F
GREENSBORO     PTSUNNY   81  68  64 E6        30.10F
HICKORY        NOT AVBL
BOONE          NOT AVBL
ASHEVILLE      NOT AVBL

.....................REST OF SOUTH CAROLINA.....................

.........EASTERN SC.........

CITY           SKY/WX    TMP DP  RH WIND       PRES   REMARKS
CHARLESTON     PTSUNNY   86  73  65 NW7       30.04F HX  93
BEAUFORT MCAS  PTSUNNY   85  73  67 NW7       30.06F HX  91
HILTON HEAD    PTSUNNY   82  73  74 NW6       30.07F

.........CENTRAL SC.........

CITY           SKY/WX    TMP DP  RH WIND       PRES   REMARKS
COLUMBIA       MOSUNNY   86  68  54 CALM      30.06F
ORANGEBURG     CLOUDY    82  70  66 VRB5      30.08S
SUMTER SHAW    PTSUNNY   82  70  65 NE3       30.05F

.........WESTERN SC.........

CITY           SKY/WX    TMP DP  RH WIND       PRES   REMARKS
GREENVILLE     NOT AVBL
ROCK HILL      MOSUNNY   87  65  47 VRB7      30.09F
ANDERSON       SUNNY     83  65  54 CALM      30.10F
CLEMSON        NOT AVBL
GREENWOOD      PTSUNNY   85  67  54 NE3       30.11S


...................COASTAL AND OFFSHORE REPORTS..................

................LOCAL PIERS AND NC RESERVE................


STATION/POSITION TIME  SKY/WX   TEMP    WIND        PRES    VSBY
                                AIR SEA DIR/SP/G
                 (UTC)          (F)     (DEG/KT/KT) (MB)    (MI)
JOHNY MRCER PIER 1800            80 83  340/  3/  4 1017.8F
NC RESRV MASNBRO NOT AVBL
OCEAN CREST PIER NOT AVBL
SPRINGMAID  PIER 1800            77 82  290/  2/  3 1017.9F


................COASTAL AND OFFSHORE BUOYS................


STATION/POSITION TIME  SKY/WX   TEMP    WIND        PRES    VSBY
                                AIR SEA DIR/SP/G
                 (UTC)          (F)     (DEG/KT/KT) (MB)    (MI)
DIMNDSHOAL 41025 1850            74 84  170/ 10/ 14 1020.7R
WVE H/P(F/S)=  3/ 9 SWL H/P/D(F/S/D)=  3/160/ 9

CAPE LOOKOUT     1900            76     150/  8/  9 1019.0R
ONSLOW BAY 41036 NOT AVBL
ONSLOW BAY 41064 1808            79 81  150/ 14/ 19 1019.0F
ONSLOW BAY 41159 1825               81                N/A
WVE H/P(F/S)=  5/ 9 WND WVE H/P(F/S)=  5/ 9

5SE WRITBC 41038 1808            79 82   30/ 10/ 16 1018.3F
MASNBO INL 41110 1819               82                N/A
WVE H/P(F/S)=  3/ 9 WND WVE H/P(F/S)=  3/ 9

WILM HARBR 41108 1811               82                N/A
WVE H/P(F/S)=  3/ 7 WND WVE H/P(F/S)=  3/ 7

27SE WRITB 41037 1800            77 82  180/ 14/ 16   N/A
FRYING PAN 41013 1850            82 81  190/ 16/ 19 1017.4F
WVE H/P(F/S)=  4/ 8 WND WVE H/P(F/S)=  3/ 7 SWL H/P/D(F/S/D)=  3/130/ 8

SUNST NRSH 41024 1808            77      30/  4/  8 1018.0F
CAPRS NRSH 41029 1808            80     310/  4/  8 1017.8F
EDISTO     41004 1850            81 83  200/ 12/ 14 1016.7F
WVE H/P(F/S)=  5/ 8 WND WVE H/P(F/S)=  3/ 6 SWL H/P/D(F/S/D)=  5/ 8



..........OFFSHORE BUOYS BEYOND 100 NM OFFSHORE...........
.....IN A TRIANGLE---HAT TO BERMUDA TO BAHAMAS TO HAT.....


STATION/POSITION TIME  SKY/WX   TEMP    WIND        PRES    VSBY
                                AIR SEA DIR/SP/G
                 (UTC)          (F)     (DEG/KT/KT) (MB)    (MI)
150E HAT   41001 1800            83 83  230/  4/  6 1020.8S
W BERMUDA  41048 1850            83 85  260/  6/  8 1020.3F
WVE H/P(F/S)=  3/ 9 WND WVE H/P(F/S)=  2/ 4 SWL H/P/D(F/S/D)=  3/ 60/ 9

ATLANTIC S 41049 1850            85 87   30/  4/  6 1020.0F
WVE H/P(F/S)=  4/ 8 SWL H/P/D(F/S/D)=  3/ 60/ 8

E BAHAMAS  41046 1850            85 86  110/  6/  8 1019.0F
WVE H/P(F/S)=  4/ 9 WND WVE H/P(F/S)=  2/ 4 SWL H/P/D(F/S/D)=  3/ 50/ 9

NE BAHAMAS 41047 1850            84 86  100/ 16/ 17 1018.5F
WVE H/P(F/S)=  4/10 WND WVE H/P(F/S)=  3/ 6 SWL H/P/D(F/S/D)=  3/ 70/10

120E CANVRL41010 1820            85 86  180/ 10/ 12 1018.9F

END


USA.gov is the U.S. government's official web portal to all federal, state and local government web resources and services.